Location: Demmingen
(48.6757°N, 10.4375°E)
Time: 19:13:16
(UTC+00:00)

DELTA 2 R/B (1) - Pass Details

Date: 23 May 2024
Orbit: 789 x 801 km, 39.6° (Epoch: 23 June)

Event Time Altitude Azimuth Distance (km) Brightness Sun altitude
Exits shadow 02:06:58 10° 250° (WSW) 2,351 5.5 -10.8°
Maximum altitude 02:11:36 28° 193° (SSW) 1,450 4.5 -10.3°
Drops below altitude 10° 02:16:14 10° 136° (SE) 2,345 6.0 -9.8°
Sets 02:19:01 0° 125° (SE) 3,271 6.9 -9.5°
